This is the latest recevied weather packets stored in our database for station/object WZ8H. If no packets are shown the sender has not sent any weather packets the latest 10 day(s).
| Time | Temp. | Humidity | Pressure | Rain* | Wind** | Luminosity | Snow |
|---|---|---|---|---|---|---|---|
| 1777966394 | 17.22° C | 78% | 1001 hPa | 0 mm | - | 0 W/m² | - |
| 1777966093 | 17.78° C | 76% | 1000.9 hPa | 0 mm | - | 0 W/m² | - |
| 1777965783 | 17.78° C | 76% | 1000.9 hPa | 0 mm | - | 0 W/m² | - |
| 1777965489 | 17.78° C | 75% | 1001 hPa | 0 mm | - | 0 W/m² | - |
| 1777965167 | 17.78° C | 76% | 1001 hPa | 0 mm | - | 0 W/m² | - |
| 1777964872 | 17.78° C | 76% | 1001.2 hPa | 0 mm | - | 0 W/m² | - |
| 1777964566 | 17.78° C | 76% | 1001.1 hPa | 0 mm | - | 0 W/m² | - |
| 1777964266 | 17.78° C | 77% | 1001.4 hPa | 0 mm | - | 0 W/m² | - |
| 1777963950 | 17.78° C | 77% | 1001.3 hPa | 0 mm | - | 0 W/m² | - |
| 1777963633 | 17.78° C | 76% | 1001.5 hPa | 0 mm | - | 0 W/m² | - |
| 1777963332 | 18.33° C | 76% | 1001.5 hPa | 0 mm | - | 0 W/m² | - |
| 1777963035 | 18.33° C | 74% | 1001.6 hPa | 0 mm | - | 0 W/m² | - |
| 1777962708 | 18.89° C | 72% | 1001.6 hPa | 0 mm | - | 0 W/m² | - |
| 1777962383 | 19.44° C | 70% | 1001.7 hPa | 0 mm | - | 0 W/m² | - |
| 1777962069 | 19.44° C | 69% | 1001.7 hPa | 0 mm | - | 0 W/m² | - |
| 1777961741 | 19.44° C | 70% | 1001.6 hPa | 0 mm | - | 0 W/m² | - |
| 1777961446 | 19.44° C | 70% | 1001.8 hPa | 0 mm | - | 0 W/m² | - |
| 1777961143 | 19.44° C | 70% | 1001.9 hPa | 0 mm | - | 0 W/m² | - |
| 1777960821 | 20° C | 69% | 1001 hPa | 0 mm | - | 0 W/m² | - |
| 1777960513 | 19.44° C | 69% | 1000.9 hPa | 0 mm | - | 0 W/m² | - |
| 1777960192 | 20° C | 69% | 1001 hPa | 0 mm | - | 0 W/m² | - |
| 1777959865 | 20° C | 69% | 1000.9 hPa | 0 mm | - | 0 W/m² | - |
| 1777959545 | 19.44° C | 70% | 1000.9 hPa | 0 mm | - | 0 W/m² | - |
| 1777959220 | 19.44° C | 70% | 1000.9 hPa | 0 mm | - | 0 W/m² | - |
| 1777958894 | 19.44° C | 71% | 1000.9 hPa | 0 mm | - | 0 W/m² | - |
* Rain latest hour (hover to see other rain measurements)
** Current wind speed in m/s (hover to see current wind gust speed)